#timestamp,LO_Frequency,Hit,StdDev 
1503126015.4,286047000.0,N,1.2
1503126035.3,286046999.7,N,1.2
1503126055.1,286047000.7,N,1.2
1503126075.9,286047000.8,N,1.1
1503126095.7,286047000.0,N,1.1
1503126115.5,286047000.0,N,1.1
1503126135.4,286047002.3,N,1.2
1503126155.2,286047000.0,N,1.1
1503126175.0,286046999.7,N,1.1
1503126175.9,286046999.7,N,1.1
1503126195.8,286047000.4,N,1.1
1503126215.6,286047000.2,N,1.1
1503126235.5,286047000.6,N,1.1
1503126255.3,286047000.3,N,1.0
1503126275.1,286047001.0,N,1.0
1503126295.9,286047000.7,N,1.0
1503126315.7,286046999.8,N,0.9
1503126335.6,286046999.7,N,0.9
1503126355.4,286046999.9,N,0.9
1503126375.2,286047002.8,Y,0.0
1503126395.1,286046999.7,P,0.2
1503126396.0,286046999.7,N,0.2
1503126415.8,286047002.8,P,1.3
1503126435.6,286046999.9,N,1.2
1503126455.5,286047000.4,N,1.1
1503126475.3,286047000.1,N,1.0
1503126495.2,286046999.9,N,1.0
1503126515.9,286047000.3,N,0.9
1503126535.7,286047000.5,N,0.9
1503126555.6,286047000.9,N,0.8
1503126575.4,286047000.3,N,0.8
1503126595.2,286046999.9,N,0.8
1503126615.1,286047000.9,N,0.8
1503126616.0,286047000.9,N,0.7
1503126635.8,286047001.0,N,0.7
1503126655.7,286047001.2,N,0.7
1503126675.5,286047000.8,N,0.7
1503126695.3,286047001.2,N,0.7
1503126715.2,286047000.0,N,0.7
1503126735.9,286047000.3,N,0.7
1503126755.7,286047000.4,N,0.7
1503126775.6,286047000.0,N,0.7
1503126795.4,286047000.3,N,0.7
1503126815.2,286047000.3,N,0.6
1503126835.1,286047000.7,N,0.6
1503126836.0,286047000.7,N,0.6
1503126855.8,286047000.3,N,0.6
1503126875.7,286047000.3,N,0.6
1503126895.5,286047002.7,Y,0.0
1503126915.4,286047001.0,P,0.3
1503126935.2,286047002.3,P,0.8
1503126955.0,286046999.7,N,0.9
1503126955.9,286046999.7,N,1.0
1503126975.8,286047001.0,N,0.9
1503126995.6,286047000.0,N,0.9
1503127015.4,286046999.8,N,0.8
1503127035.3,286047000.5,N,0.8
1503127055.1,286047000.5,N,0.8
1503127075.9,286047002.4,Y,0.0
1503127095.7,286047000.4,P,0.0
1503127115.5,286047000.9,P,0.2
1503127135.4,286047000.5,N,0.2
1503127155.2,286047000.7,Y,0.0
1503127175.0,286046998.8,P,0.9
1503127175.9,286046998.8,N,0.8
1503127195.8,286046998.1,N,0.9
1503127215.6,286047000.9,N,1.1
1503127235.5,286047001.0,N,1.2
1503127255.3,286046998.1,N,1.2
1503127275.1,286047001.0,N,1.2
1503127295.9,286046998.4,N,1.2
1503127315.7,286046998.1,N,1.2
1503127335.5,286046998.8,N,1.2
1503127355.4,286046998.7,N,1.2
1503127375.2,286047001.1,N,1.2
1503127395.0,286046998.5,N,1.2
1503127396.0,286046998.5,N,1.2
1503127415.8,286047001.0,N,1.2
1503127435.6,286046999.0,N,1.2
1503127455.5,286046999.0,N,1.1
1503127475.3,286046998.5,N,1.1
1503127495.1,286046999.0,N,1.1
1503127515.9,286047000.7,N,1.1
1503127535.7,286047000.8,N,1.1
1503127555.6,286047000.3,N,1.1
1503127575.4,286047000.4,N,1.1
1503127595.2,286047000.7,N,1.1
1503127615.1,286047001.0,N,1.1
1503127616.0,286047001.0,N,1.1
1503127635.8,286047000.0,N,1.1
1503127655.7,286047000.5,N,1.1
1503127675.5,286047000.2,N,1.1
1503127695.3,286046999.9,N,1.1
1503127715.2,286047000.4,N,1.1
1503127735.0,286046998.5,N,1.1
1503127735.9,286046998.5,N,1.1
1503127755.8,286046998.1,N,1.1
1503127775.6,286047001.2,N,1.1
1503127795.4,286047001.2,N,1.1
1503127815.3,286047000.7,N,1.1
1503127835.1,286047000.7,N,1.1
1503127855.8,286046998.2,N,1.1
1503127875.7,286046998.2,N,1.1
1503127895.5,286046998.1,N,1.1
1503127915.3,286046998.1,N,1.1
1503127935.2,286047001.0,N,1.1
1503127955.0,286047001.2,N,1.1
1503127955.9,286047001.2,N,1.1
1503127975.8,286046998.5,N,1.2
1503127995.6,286047000.5,N,1.1
1503128015.4,286047002.4,N,1.2
1503128035.3,286047000.2,N,1.2
1503128055.1,286047000.3,N,1.2
1503128075.8,286047000.2,N,1.2
1503128095.7,286046999.8,N,1.2
1503128115.5,286047000.2,N,1.2
1503128135.4,286047002.6,N,1.3
1503128155.2,286047002.4,N,1.3
1503128175.0,286047000.3,N,1.3
1503128175.9,286047000.3,N,1.3
1503128195.8,286047000.1,N,1.3
1503128215.6,286047000.1,N,1.3
1503128235.5,286047002.8,N,1.4
1503128255.3,286047000.3,N,1.4
1503128275.1,286047000.3,N,1.3
1503128295.9,286047000.3,N,1.3
1503128315.7,286046999.9,N,1.2
1503128335.5,286047002.7,N,1.3
1503128355.4,286047000.4,N,1.3
1503128375.2,286047000.0,N,1.3
1503128395.1,286042571.0,Y,0.0
1503128396.0,286046999.9,P,0.2
1503128415.8,286047000.5,N,0.3
1503128435.6,286047000.9,P,0.4
1503128455.5,286046999.9,N,0.4
1503128475.3,286047001.0,N,0.4
1503128495.2,286047001.2,N,0.5
1503128515.9,286047000.6,N,0.5
1503128535.7,286047001.1,N,0.5
1503128555.6,286046998.2,Y,0.0
1503128575.4,286046999.6,P,0.5
1503128595.3,286046996.6,P,1.7
1503128615.1,286046997.7,N,1.6
1503128616.0,286046997.7,N,1.5
1503128635.8,286046997.3,N,1.4
1503128655.7,286046998.0,N,1.3
1503128675.5,286046997.6,N,1.2
1503128695.3,286046997.5,N,1.2
1503128715.2,286046995.2,Y,0.0
1503128735.0,286046996.8,P,0.6
1503128735.9,286046996.8,P,0.6
1503128755.8,286046996.6,P,0.6
1503128775.6,286046997.2,Y,0.0
1503128795.4,286047002.6,P,2.8
1503128815.3,286047002.0,N,2.5
1503128835.1,286047002.6,N,2.3
1503128855.8,286047002.8,N,2.2
1503128875.7,286047000.0,N,2.1
1503128895.5,286047000.3,N,1.9
1503128915.4,286047000.5,N,1.8
1503128935.2,286046998.5,N,1.9
1503128955.0,286047000.9,N,1.8
1503128955.9,286047000.9,N,1.7
1503128975.8,286046998.7,N,1.7
1503128995.6,286046999.5,N,1.7
1503129015.4,286046999.2,N,1.7
1503129035.3,286046999.4,N,1.6
1503129055.1,286046996.8,N,1.8
1503129075.9,286046999.4,N,1.7
1503129095.7,286046999.1,N,1.7
1503129115.5,286046996.9,N,1.8
1503129135.4,286046996.5,N,1.9
1503129155.2,286046998.9,N,1.9
1503129175.0,286046999.2,N,1.8
1503129175.9,286046999.2,N,1.8
1503129195.8,286046996.6,N,1.8
1503129215.6,286046997.3,N,1.9
1503129235.4,286046997.7,N,1.9
1503129255.3,286046997.9,N,1.8
1503129275.1,286046998.0,N,1.8
1503129295.9,286046995.7,N,1.9
1503129315.7,286046997.5,N,1.9
1503129335.5,286046998.0,N,1.9
1503129355.4,286046995.0,N,1.9
1503129375.2,286046997.2,N,1.8
1503129395.0,286046998.0,N,1.7
1503129395.9,286046998.0,N,1.5
1503129415.8,286046998.0,N,1.4
1503129435.6,286046995.3,Y,0.0
1503129455.5,286046997.6,P,0.3
1503129475.3,286046996.7,P,0.7
1503129495.1,286046997.1,P,0.6
1503129515.9,286046997.4,Y,0.0
1503129535.7,286047001.2,P,1.9
1503129555.5,286047000.8,N,1.7
1503129575.4,286046998.1,N,1.6
1503129595.2,286046998.2,N,1.5
